Hagerstown, MD

5:17 AM EST on January 16, 2018 (GMT -0500)
Hagerstown Regional-Henson

Weather History for KHGR - May, 2013

Change the Weather History Date:

Wednesday, May 8, 2013

  Actual Average Record
Temperature  
Mean Temperature 63 °F 60 °F  
Max Temperature 69 °F 70 °F 89 °F (2000)
Min Temperature 56 °F 49 °F 35 °F (1997)
Degree Days  
Heating Degree Days 2 7  
Month to date heating degree days 56 59  
Since 1 July heating degree days 4840 5073  
Cooling Degree Days 0 1  
Month to date cooling degree days 0 8  
Year to date cooling degree days 26 23  
Growing Degree Days 12 (Base 50)    
Moisture  
Dew Point 55 °F    
Average Humidity 76    
Maximum Humidity 93    
Minimum Humidity 58    
Precipitation  
Precipitation 0.01 in 0.13 in 0.63 in (1999)
Month to date precipitation 0.81 0.93  
Year to date precipitation 8.77 13.10  
Sea Level Pressure  
Sea Level Pressure 29.99 in    
Wind  
Wind Speed 4 mph (SSE)    
Max Wind Speed 12 mph    
Max Gust Speed 15 mph    
Visibility 10 miles    
Events Rain    
T = Trace of Precipitation, MM = Missing Value Source: NWS Daily Summary

Daily Weather History Graph

Daily Weather History Graph

Search for Another Location

Airport or City:

Trip Planner

Search our weather history database for the weather conditions in past years. The results will help you decide how hot, cold, wet, or windy it might be!

Date:

Astronomy

May. 08, 2013 Rise Set
Actual Time 6:03 AM EDT 8:12 PM EDT
Civil Twilight 5:33 AM EDT 8:42 PM EDT
Nautical Twilight 4:56 AM EDT 9:18 PM EDT
Astronomical Twilight 4:16 AM EDT 9:58 PM EDT
Moon 5:09 AM EDT (5/8) 7:08 PM EDT (5/8)
Length of Visible Light 15h 08m
Length of Day
14h 09m
Waning Crescent, 2% of the Moon is Illuminated
May 8
Waning Crescent
May 9
New
May 18
First Quarter
May 25
Full
May 31
Last Quarter

Hourly Weather History & Observations

Time (EDT) Temp. Dew Point Humidity Pressure Visibility Wind Dir Wind Speed Gust Speed Precip Events Conditions
12:22 AM 60.8 °F 57.2 °F 88% 29.97 in 10.0 mi ESE 8.1 mph - 0.00 in Rain Light Rain
12:53 AM 60.1 °F 57.9 °F 93% 30.00 in 2.0 mi East 5.8 mph - 0.16 in Rain Heavy Rain
12:58 AM 60.8 °F 57.2 °F 88% 29.97 in 3.0 mi ESE 6.9 mph - 0.00 in Rain Light Rain
1:07 AM 60.8 °F 57.2 °F 88% 29.98 in 10.0 mi SE 8.1 mph - 0.00 in   Overcast
1:18 AM 60.8 °F 57.2 °F 88% 29.98 in 10.0 mi ESE 4.6 mph - 0.00 in   Overcast
1:53 AM 60.1 °F 57.9 °F 93% 29.99 in 10.0 mi SE 6.9 mph - 0.00 in   Overcast
2:17 AM 57.2 °F 53.6 °F 88% 29.96 in 10.0 mi Calm Calm - N/A   Overcast
2:53 AM 59.0 °F 55.0 °F 87% 29.99 in 10.0 mi East 5.8 mph - N/A   Overcast
3:53 AM 59.0 °F 55.9 °F 90% 29.98 in 10.0 mi East 6.9 mph - N/A   Overcast
4:53 AM 57.9 °F 55.9 °F 93% 29.99 in 10.0 mi East 4.6 mph - N/A   Overcast
5:39 AM 57.2 °F 55.4 °F 94% 29.97 in 10.0 mi ENE 6.9 mph - N/A   Overcast
5:53 AM 57.0 °F 55.9 °F 96% 29.99 in 10.0 mi East 4.6 mph - N/A   Overcast
6:53 AM 57.0 °F 55.0 °F 93% 30.00 in 10.0 mi Calm Calm - N/A   Partly Cloudy
7:53 AM 59.0 °F 55.0 °F 87% 30.02 in 10.0 mi Calm Calm - N/A   Mostly Cloudy
8:53 AM 62.1 °F 55.9 °F 80% 30.03 in 10.0 mi Calm Calm - N/A   Mostly Cloudy
9:02 AM 62.6 °F 55.4 °F 77% 30.00 in 10.0 mi Calm Calm - N/A   Mostly Cloudy
9:14 AM 62.6 °F 55.4 °F 77% 30.00 in 10.0 mi SW 8.1 mph - N/A   Mostly Cloudy
9:32 AM 59.0 °F 55.4 °F 88% 30.01 in 10.0 mi West 5.8 mph - 0.01 in   Overcast
9:49 AM 62.6 °F 55.4 °F 77% 30.01 in 10.0 mi Calm Calm - 0.01 in   Mostly Cloudy
9:53 AM 62.1 °F 55.0 °F 78% 30.03 in 10.0 mi SW 3.5 mph - 0.01 in   Mostly Cloudy
10:39 AM 64.4 °F 55.4 °F 73% 30.00 in 10.0 mi West 6.9 mph - N/A   Mostly Cloudy
10:53 AM 63.0 °F 55.0 °F 75% 30.02 in 10.0 mi WNW 5.8 mph - N/A   Mostly Cloudy
11:13 AM 62.6 °F 55.4 °F 77% 29.99 in 10.0 mi NW 4.6 mph - N/A   Mostly Cloudy
11:53 AM 64.9 °F 53.1 °F 65% 30.01 in 10.0 mi SW 5.8 mph - N/A   Partly Cloudy
12:53 PM 66.9 °F 52.0 °F 59% 30.00 in 10.0 mi Calm Calm - N/A   Mostly Cloudy
1:53 PM 66.9 °F 53.1 °F 61% 29.98 in 10.0 mi Variable 3.5 mph - N/A   Mostly Cloudy
2:53 PM 66.9 °F 53.1 °F 61% 29.96 in 10.0 mi SE 4.6 mph - 0.00 in   Overcast
3:53 PM 63.0 °F 55.0 °F 75% 29.95 in 10.0 mi South 6.9 mph - 0.00 in Rain Light Rain
4:53 PM 64.9 °F 54.0 °F 68% 29.95 in 10.0 mi South 8.1 mph - 0.00 in   Mostly Cloudy
5:53 PM 63.0 °F 52.0 °F 67% 29.96 in 10.0 mi South 5.8 mph - N/A   Mostly Cloudy
6:53 PM 63.0 °F 51.1 °F 65% 29.96 in 10.0 mi South 5.8 mph - N/A   Mostly Cloudy
7:53 PM 59.0 °F 52.0 °F 78% 29.98 in 10.0 mi South 6.9 mph - N/A   Clear
8:53 PM 57.9 °F 52.0 °F 81% 29.98 in 10.0 mi East 4.6 mph - N/A   Clear
9:53 PM 57.0 °F 52.0 °F 83% 29.99 in 10.0 mi South 3.5 mph - N/A   Overcast
10:53 PM 57.0 °F 52.0 °F 83% 30.00 in 10.0 mi Calm Calm - N/A   Overcast
11:53 PM 55.9 °F 53.1 °F 90% 29.99 in 10.0 mi SSE 5.8 mph - N/A   Overcast